Вернуться в каталог

SL-8 R/B

АктивенLEO
NORAD 6125·ROCKET BODY·🇷🇺 Russia

Запущен Jul 20, 1972 с Plesetsk Cosmodrome

Loading…

Ближайшие Пролёты (ближайшие 24 часа)

TLE

СвежийSource: Space-Track

Эпоха: Sep 14, 2026, 17:21 UTC

1 06125U 72057J   26257.72342044  .00000051  00000-0  55121-3 0  9996
2 06125  74.0138  52.6909 0068652  73.1085 298.6506 12.31002851433055

Отслеживайте SL-8 R/B в реальном времени с AllMySat

Download on the App Store